Time,TemperatureF,DewpointF,PressureIn,WindDirection,WindDirectionDegrees,WindSpeedMPH,WindSpeedGustMPH,Humidity,HourlyPrecipIn,Conditions,Clouds,dailyrainin,SolarRadiationWatts/m^2,SoftwareType,DateUTC
2013-02-09 00:02:00,17.0,14.0,-100.00,North,351,5.0,11.0,88,0.00,,,0.00,0.000000,,2013-02-09 05:02:00,
2013-02-09 00:12:00,17.0,14.0,-100.00,North,351,5.0,11.0,88,0.00,,,0.00,0.000000,,2013-02-09 05:12:00,
2013-02-09 00:22:00,17.0,14.0,-100.00,North,351,5.0,11.0,88,0.00,,,0.00,0.000000,,2013-02-09 05:22:00,
2013-02-09 00:52:00,17.0,14.0,-100.00,NW,323,4.0,9.0,89,0.00,,,0.00,0.000000,,2013-02-09 05:52:00,
2013-02-09 01:02:00,17.0,14.0,-100.00,NW,323,4.0,9.0,89,0.00,,,0.00,0.000000,,2013-02-09 06:02:00,
2013-02-09 01:11:00,17.0,14.0,-100.00,NW,323,4.0,9.0,89,0.00,,,0.00,0.000000,,2013-02-09 06:11:00,
2013-02-09 01:21:00,17.0,14.0,-100.00,NW,323,4.0,9.0,89,0.00,,,0.00,0.000000,,2013-02-09 06:21:00,
2013-02-09 01:52:00,17.0,14.0,-100.00,NW,304,3.0,8.0,89,0.00,,,0.00,0.000000,,2013-02-09 06:52:00,
2013-02-09 02:01:00,17.0,14.0,-100.00,NW,304,3.0,8.0,89,0.00,,,0.00,0.000000,,2013-02-09 07:01:00,
2013-02-09 02:11:00,17.0,14.0,-100.00,NW,304,3.0,8.0,89,0.00,,,0.00,0.000000,,2013-02-09 07:11:00,
2013-02-09 02:21:00,17.0,14.0,-100.00,NW,304,3.0,8.0,89,0.00,,,0.00,0.000000,,2013-02-09 07:21:00,
2013-02-09 02:52:00,17.0,14.0,-100.00,WNW,290,4.0,6.0,89,0.00,,,0.00,0.000000,,2013-02-09 07:52:00,
2013-02-09 03:01:00,17.0,14.0,-100.00,WNW,290,4.0,6.0,89,0.00,,,0.00,0.000000,,2013-02-09 08:01:00,
2013-02-09 03:11:00,17.0,14.0,-100.00,WNW,290,4.0,6.0,89,0.00,,,0.00,0.000000,,2013-02-09 08:11:00,
2013-02-09 03:21:00,17.0,14.0,-100.00,WNW,290,4.0,6.0,89,0.00,,,0.00,0.000000,,2013-02-09 08:21:00,
2013-02-09 03:52:00,17.0,14.0,-100.00,NW,325,4.0,9.0,89,0.00,,,0.00,0.000000,,2013-02-09 08:52:00,
2013-02-09 04:03:00,17.0,14.0,-100.00,NW,325,4.0,9.0,89,0.00,,,0.00,0.000000,,2013-02-09 09:03:00,
2013-02-09 04:11:00,17.0,14.0,-100.00,NW,325,4.0,9.0,89,0.00,,,0.00,0.000000,,2013-02-09 09:11:00,
2013-02-09 04:21:00,17.0,14.0,-100.00,NW,325,4.0,9.0,89,0.00,,,0.00,0.000000,,2013-02-09 09:21:00,
2013-02-09 04:52:00,17.0,14.0,-100.00,NW,305,3.0,7.0,89,0.00,,,0.00,0.000000,,2013-02-09 09:52:00,
2013-02-09 05:01:00,17.0,14.0,-100.00,NW,305,3.0,7.0,89,0.00,,,0.00,0.000000,,2013-02-09 10:01:00,
2013-02-09 05:11:00,17.0,14.0,-100.00,NW,305,3.0,7.0,89,0.00,,,0.00,0.000000,,2013-02-09 10:11:00,
2013-02-09 05:21:00,17.0,14.0,-100.00,NW,305,3.0,7.0,89,0.00,,,0.00,0.000000,,2013-02-09 10:21:00,
2013-02-09 05:52:00,17.0,14.0,-100.00,WNW,303,3.0,6.0,89,0.00,,,0.00,0.000000,,2013-02-09 10:52:00,
2013-02-09 06:02:00,17.0,14.0,-100.00,WNW,303,3.0,6.0,89,0.00,,,0.00,0.000000,,2013-02-09 11:02:00,
2013-02-09 06:11:00,17.0,14.0,-100.00,WNW,303,3.0,6.0,89,0.00,,,0.00,0.000000,,2013-02-09 11:11:00,
2013-02-09 06:22:00,17.0,14.0,-100.00,WNW,303,3.0,6.0,89,0.00,,,0.00,0.000000,,2013-02-09 11:22:00,
2013-02-09 06:52:00,17.0,14.0,-100.00,WNW,298,3.0,7.0,89,0.00,,,0.00,0.000000,,2013-02-09 11:52:00,
2013-02-09 07:02:00,17.0,14.0,-100.00,WNW,298,3.0,7.0,89,0.00,,,0.00,0.000000,,2013-02-09 12:02:00,
2013-02-09 07:11:00,17.0,14.0,-100.00,WNW,298,3.0,7.0,89,0.00,,,0.00,0.000000,,2013-02-09 12:11:00,
2013-02-09 07:22:00,17.0,14.0,-100.00,WNW,298,3.0,7.0,89,0.00,,,0.00,0.000000,,2013-02-09 12:22:00,
2013-02-09 07:53:00,16.0,13.0,-100.00,WNW,300,4.0,6.0,89,0.00,,,0.00,0.000000,,2013-02-09 12:53:00,
2013-02-09 08:02:00,16.0,13.0,-100.00,WNW,300,4.0,6.0,89,0.00,,,0.00,0.000000,,2013-02-09 13:02:00,
2013-02-09 08:11:00,16.0,13.0,-100.00,WNW,300,4.0,6.0,89,0.00,,,0.00,0.000000,,2013-02-09 13:11:00,
2013-02-09 08:22:00,16.0,13.0,-100.00,WNW,300,4.0,6.0,89,0.00,,,0.00,0.000000,,2013-02-09 13:22:00,
2013-02-09 08:52:00,17.0,14.0,-100.00,WNW,290,4.0,8.0,88,0.00,,,0.00,14.000000,,2013-02-09 13:52:00,
2013-02-09 09:01:00,17.0,14.0,-100.00,WNW,290,4.0,8.0,88,0.00,,,0.00,14.000000,,2013-02-09 14:01:00,
2013-02-09 09:11:00,17.0,14.0,-100.00,WNW,290,4.0,8.0,88,0.00,,,0.00,14.000000,,2013-02-09 14:11:00,
2013-02-09 09:21:00,17.0,14.0,-100.00,WNW,290,4.0,8.0,88,0.00,,,0.00,14.000000,,2013-02-09 14:21:00,
2013-02-09 09:52:00,18.0,15.0,-100.00,WNW,284,5.0,9.0,87,0.00,,,0.00,54.000000,,2013-02-09 14:52:00,
2013-02-09 10:02:00,18.0,15.0,-100.00,WNW,284,5.0,9.0,87,0.00,,,0.00,54.000000,,2013-02-09 15:02:00,
2013-02-09 10:11:00,18.0,15.0,-100.00,WNW,284,5.0,9.0,87,0.00,,,0.00,54.000000,,2013-02-09 15:11:00,
2013-02-09 10:21:00,18.0,15.0,-100.00,WNW,284,5.0,9.0,87,0.00,,,0.00,54.000000,,2013-02-09 15:21:00,
2013-02-09 10:52:00,19.0,14.0,-100.00,WNW,289,6.0,11.0,79,0.00,,,0.00,197.000000,,2013-02-09 15:52:00,
2013-02-09 11:01:00,19.0,14.0,-100.00,WNW,289,6.0,11.0,79,0.00,,,0.00,197.000000,,2013-02-09 16:01:00,
2013-02-09 11:11:00,19.0,14.0,-100.00,WNW,289,6.0,11.0,79,0.00,,,0.00,197.000000,,2013-02-09 16:11:00,
2013-02-09 11:22:00,19.0,14.0,-100.00,WNW,289,6.0,11.0,79,0.00,,,0.00,197.000000,,2013-02-09 16:22:00,
2013-02-09 11:52:00,19.0,13.0,-100.00,WNW,289,6.0,11.0,77,0.00,,,0.00,219.000000,,2013-02-09 16:52:00,
2013-02-09 12:01:00,19.0,13.0,-100.00,WNW,289,6.0,11.0,77,0.00,,,0.00,219.000000,,2013-02-09 17:01:00,
2013-02-09 12:11:00,19.0,13.0,-100.00,WNW,289,6.0,11.0,77,0.00,,,0.00,219.000000,,2013-02-09 17:11:00,
2013-02-09 12:22:00,19.0,13.0,-100.00,WNW,289,6.0,11.0,77,0.00,,,0.00,219.000000,,2013-02-09 17:22:00,
2013-02-09 12:52:00,19.0,13.0,-100.00,WNW,289,6.0,11.0,77,0.00,,,0.00,250.000000,,2013-02-09 17:52:00,
2013-02-09 13:02:00,19.0,13.0,-100.00,WNW,289,6.0,11.0,77,0.00,,,0.00,250.000000,,2013-02-09 18:02:00,
2013-02-09 13:12:00,19.0,13.0,-100.00,WNW,289,6.0,11.0,77,0.00,,,0.00,250.000000,,2013-02-09 18:12:00,
2013-02-09 13:23:00,19.0,13.0,-100.00,WNW,289,6.0,11.0,77,0.00,,,0.00,250.000000,,2013-02-09 18:23:00,
2013-02-09 13:52:00,21.0,14.0,-100.00,West,267,6.0,10.0,75,0.00,,,0.00,265.000000,,2013-02-09 18:52:00,
2013-02-09 14:02:00,21.0,14.0,-100.00,West,267,6.0,10.0,75,0.00,,,0.00,265.000000,,2013-02-09 19:02:00,
2013-02-09 14:11:00,21.0,14.0,-100.00,West,267,6.0,10.0,75,0.00,,,0.00,265.000000,,2013-02-09 19:11:00,
2013-02-09 14:22:00,21.0,14.0,-100.00,West,267,6.0,10.0,75,0.00,,,0.00,265.000000,,2013-02-09 19:22:00,
2013-02-09 14:52:00,20.0,12.0,-100.00,West,271,7.0,11.0,71,0.00,,,0.00,276.000000,,2013-02-09 19:52:00,
2013-02-09 15:02:00,20.0,12.0,-100.00,West,271,7.0,11.0,71,0.00,,,0.00,276.000000,,2013-02-09 20:02:00,
2013-02-09 15:11:00,20.0,12.0,-100.00,West,271,7.0,11.0,71,0.00,,,0.00,276.000000,,2013-02-09 20:11:00,
2013-02-09 15:21:00,20.0,12.0,-100.00,West,271,7.0,11.0,71,0.00,,,0.00,276.000000,,2013-02-09 20:21:00,
2013-02-09 15:52:00,21.0,13.0,-100.00,West,271,6.0,11.0,72,0.00,,,0.00,259.000000,,2013-02-09 20:52:00,
2013-02-09 16:02:00,21.0,13.0,-100.00,West,271,6.0,11.0,72,0.00,,,0.00,259.000000,,2013-02-09 21:02:00,
2013-02-09 16:12:00,21.0,13.0,-100.00,West,271,6.0,11.0,72,0.00,,,0.00,259.000000,,2013-02-09 21:12:00,
2013-02-09 16:22:00,21.0,13.0,-100.00,West,271,6.0,11.0,72,0.00,,,0.00,259.000000,,2013-02-09 21:22:00,
2013-02-09 16:52:00,20.0,14.0,-100.00,WSW,248,6.0,10.0,78,0.00,,,0.00,111.000000,,2013-02-09 21:52:00,
2013-02-09 17:01:00,20.0,14.0,-100.00,WSW,248,6.0,10.0,78,0.00,,,0.00,111.000000,,2013-02-09 22:01:00,
2013-02-09 17:11:00,20.0,14.0,-100.00,WSW,248,6.0,10.0,78,0.00,,,0.00,111.000000,,2013-02-09 22:11:00,
2013-02-09 17:22:00,20.0,14.0,-100.00,WSW,248,6.0,10.0,78,0.00,,,0.00,111.000000,,2013-02-09 22:22:00,
2013-02-09 17:52:00,18.0,13.0,-100.00,WSW,244,5.0,10.0,80,0.00,,,0.00,45.000000,,2013-02-09 22:52:00,
2013-02-09 18:02:00,18.0,13.0,-100.00,WSW,244,5.0,10.0,80,0.00,,,0.00,45.000000,,2013-02-09 23:02:00,
2013-02-09 18:11:00,18.0,13.0,-100.00,WSW,244,5.0,10.0,80,0.00,,,0.00,45.000000,,2013-02-09 23:11:00,
2013-02-09 18:21:00,18.0,13.0,-100.00,WSW,244,5.0,10.0,80,0.00,,,0.00,45.000000,,2013-02-09 23:21:00,
2013-02-09 18:52:00,17.0,13.0,-100.00,SW,229,3.0,6.0,84,0.00,,,0.00,2.000000,,2013-02-09 23:52:00,
2013-02-09 19:02:00,17.0,13.0,-100.00,SW,229,3.0,6.0,84,0.00,,,0.00,2.000000,,2013-02-10 00:02:00,
2013-02-09 19:12:00,17.0,13.0,-100.00,SW,229,3.0,6.0,84,0.00,,,0.00,2.000000,,2013-02-10 00:12:00,
2013-02-09 19:22:00,17.0,13.0,-100.00,SW,229,3.0,6.0,84,0.00,,,0.00,2.000000,,2013-02-10 00:22:00,
2013-02-09 19:52:00,15.0,11.0,-100.00,SW,222,3.0,6.0,85,0.00,,,0.00,0.000000,,2013-02-10 00:52:00,
2013-02-09 20:01:00,15.0,11.0,-100.00,SW,222,3.0,6.0,85,0.00,,,0.00,0.000000,,2013-02-10 01:01:00,
2013-02-09 20:12:00,15.0,11.0,-100.00,SW,222,3.0,6.0,85,0.00,,,0.00,0.000000,,2013-02-10 01:12:00,
2013-02-09 20:21:00,15.0,11.0,-100.00,SW,222,3.0,6.0,85,0.00,,,0.00,0.000000,,2013-02-10 01:21:00,
2013-02-09 20:52:00,12.0,9.0,-100.00,SSW,213,2.0,4.0,87,0.00,,,0.00,0.000000,,2013-02-10 01:52:00,
2013-02-09 21:01:00,12.0,9.0,-100.00,SSW,213,2.0,4.0,87,0.00,,,0.00,0.000000,,2013-02-10 02:01:00,
2013-02-09 21:11:00,12.0,9.0,-100.00,SSW,213,2.0,4.0,87,0.00,,,0.00,0.000000,,2013-02-10 02:11:00,
2013-02-09 21:22:00,12.0,9.0,-100.00,SSW,213,2.0,4.0,87,0.00,,,0.00,0.000000,,2013-02-10 02:22:00,
2013-02-09 21:52:00,10.0,6.0,-100.00,South,177,2.0,5.0,85,0.00,,,0.00,0.000000,,2013-02-10 02:52:00,
2013-02-09 22:02:00,10.0,6.0,-100.00,South,177,2.0,5.0,85,0.00,,,0.00,0.000000,,2013-02-10 03:02:00,
2013-02-09 22:12:00,10.0,6.0,-100.00,South,177,2.0,5.0,85,0.00,,,0.00,0.000000,,2013-02-10 03:12:00,
2013-02-09 22:22:00,10.0,6.0,-100.00,South,177,2.0,5.0,85,0.00,,,0.00,0.000000,,2013-02-10 03:22:00,
2013-02-09 22:52:00,10.0,7.0,-100.00,South,188,2.0,5.0,86,0.00,,,0.00,0.000000,,2013-02-10 03:52:00,
2013-02-09 23:02:00,10.0,7.0,-100.00,South,188,2.0,5.0,86,0.00,,,0.00,0.000000,,2013-02-10 04:02:00,
2013-02-09 23:11:00,10.0,7.0,-100.00,South,188,2.0,5.0,86,0.00,,,0.00,0.000000,,2013-02-10 04:11:00,
2013-02-09 23:22:00,10.0,7.0,-100.00,South,188,2.0,5.0,86,0.00,,,0.00,0.000000,,2013-02-10 04:22:00,
2013-02-09 23:52:00,8.0,4.0,-100.00,SSW,192,0.0,4.0,85,0.00,,,0.00,0.000000,,2013-02-10 04:52:00,